User: anonymous   Login
Location: downtown San Diego
(32.7310°N, 117.1990°W)
Time: 23:33:56
(UTC-07:00)
Language:

OAO 1 Rocket - Orbit

View from above orbital plane
View from above orbital plane
View from above satellite
View from above satellite

Ground track
Ground track

The orbit data is extracted from the following two-line orbital elements,

1  2144U 66031B   19115.80866189  .00000049  00000-0  20471-4 0  9991
2  2144  35.0435  48.4669 0008160 139.6062 220.5235 14.42712661786017
Epoch (UTC): 25 April 2019 19:24:28
Eccentricity: 0.0008160
inclination: 35.0435°
perigee height: 744 km
apogee height: 755 km
right ascension of ascending node: 48.4669°
argument of perigee: 139.6062°
revolutions per day: 14.42712661
mean anomaly at epoch: 220.5235°
orbit number at epoch: 78601

The dashed part of the orbit path shows where the satellite is in the earth's shadow,  

DLR